GW2646 Weather Reports


time (UTC)temp
C
wind
direction
speed
KPH
gust
KPH
rain 1hr
cm
rain 24hr
cm
rain mn
cm
humidity
%
barometer
mb
20260509230545 18 298 4.8 14.5 0.00 0.00 0.00 64 1018.1
20260509230056 18 74 4.8 14.5 0.00 0.00 0.00 65 1018.2
20260509225547 18 324 3.2 17.7 0.00 0.00 0.00 63 1018.5
20260509225046 19 302 1.6 17.7 0.00 0.00 0.00 60 1018.4
20260509224550 18 307 4.8 16.1 0.00 0.00 0.00 64 1018.6
20260509224048 19 217 3.2 12.9 0.00 0.00 0.00 64 1018.6
20260509223549 18 325 4.8 12.9 0.00 0.00 0.00 64 1018.6
20260509223052 18 0 6.4 17.7 0.00 0.00 0.00 63 1018.6
20260509222546 18 329 6.4 17.7 0.00 0.00 0.00 64 1018.6
20260509222046 18 293 3.2 14.5 0.00 0.00 0.00 64 1018.7
20260509221555 19 321 1.6 12.9 0.00 0.00 0.00 63 1018.7
20260509221145 19 288 1.6 14.5 0.00 0.00 0.00 62 1018.7
20260509220546 19 329 1.6 14.5 0.00 0.00 0.00 63 1018.7
20260509220051 18 315 6.4 16.1 0.00 0.00 0.00 63 1018.8
20260509215547 18 330 3.2 17.7 0.00 0.00 0.00 63 1018.9
20260509215047 18 42 8.0 17.7 0.00 0.00 0.00 64 1018.8
20260509214610 18 251 6.4 19.3 0.00 0.00 0.00 64 1018.9
20260509214046 19 316 4.8 22.5 0.00 0.00 0.00 63 1019.0
20260509213545 18 245 4.8 22.5 0.00 0.00 0.00 63 1019.0
20260509213053 18 336 4.8 16.1 0.00 0.00 0.00 63 1019.1
20260509212546 18 0 4.8 14.5 0.00 0.00 0.00 63 1019.2
20260509212047 19 300 4.8 17.7 0.00 0.00 0.00 63 1019.2
20260509211552 19 294 6.4 17.7 0.00 0.00 0.00 62 1019.3
20260509211047 19 233 4.8 14.5 0.00 0.00 0.00 62 1019.3
20260509210544 19 332 3.2 12.9 0.00 0.00 0.00 60 1019.3
20260509210100 19 15 1.6 11.3 0.00 0.00 0.00 61 1019.2
20260509205546 19 0 3.2 14.5 0.00 0.00 0.00 62 1019.2
20260509205046 18 340 3.2 14.5 0.00 0.00 0.00 62 1019.3
20260509204554 19 303 3.2 11.3 0.00 0.00 0.00 61 1019.3
20260509204044 18 0 4.8 11.3 0.00 0.00 0.00 61 1019.3
20260509203544 18 307 3.2 6.4 0.00 0.00 0.00 62 1019.3
20260509203059 18 338 1.6 6.4 0.00 0.00 0.00 62 1019.2
20260509202548 19 5 1.6 12.9 0.00 0.00 0.00 60 1019.3
20260509202046 18 317 3.2 12.9 0.00 0.00 0.00 63 1019.4
20260509201551 18 302 0.0 9.7 0.00 0.00 0.00 63 1019.4
20260509201047 18 0 4.8 8.0 0.00 0.00 0.00 64 1019.5
20260509200548 18 338 1.6 8.0 0.00 0.00 0.00 62 1019.6
20260509200056 18 0 1.6 11.3 0.00 0.00 0.00 61 1019.7
20260509195545 18 319 1.6 12.9 0.00 0.00 0.00 64 1019.7
20260509195048 17 282 4.8 12.9 0.00 0.00 0.00 64 1019.8
20260509194554 18 26 1.6 12.9 0.00 0.00 0.00 65 1019.8
20260509194050 17 298 3.2 11.3 0.00 0.00 0.00 65 1019.8
20260509193547 17 14 1.6 11.3 0.00 0.00 0.00 65 1019.9
20260509193058 18 292 4.8 11.3 0.00 0.00 0.00 63 1020.0
20260509192548 18 329 3.2 11.3 0.00 0.00 0.00 62 1020.0
20260509192048 17 322 3.2 12.9 0.00 0.00 0.00 66 1020.2
20260509191600 17 284 3.2 12.9 0.00 0.00 0.00 65 1020.2
20260509191048 17 327 1.6 11.3 0.00 0.00 0.00 68 1020.1
20260509190544 17 269 3.2 11.3 0.00 0.00 0.00 66 1020.1
20260509190056 17 295 1.6 11.3 0.00 0.00 0.00 65 1020.2
20260509185546 17 225 1.6 11.3 0.00 0.00 0.00 67 1020.2
20260509185046 17 329 3.2 11.3 0.00 0.00 0.00 67 1020.4
20260509184559 17 304 1.6 12.9 0.00 0.00 0.00 67 1020.5
20260509184045 17 311 3.2 12.9 0.00 0.00 0.00 67 1020.5
20260509183543 17 297 1.6 8.0 0.00 0.00 0.00 67 1020.5
20260509183059 17 244 3.2 8.0 0.00 0.00 0.00 66 1020.5
20260509182549 17 289 1.6 9.7 0.00 0.00 0.00 66 1020.5
20260509182044 17 11 3.2 9.7 0.00 0.00 0.00 66 1020.5
20260509181554 17 17 3.2 9.7 0.00 0.00 0.00 67 1020.5
20260509181047 17 309 0.0 14.5 0.00 0.00 0.00 66 1020.6
20260509180547 17 325 4.8 14.5 0.00 0.00 0.00 66 1020.5
20260509180050 17 193 4.8 11.3 0.00 0.00 0.00 65 1020.5
20260509175549 16 203 0.0 9.7 0.00 0.00 0.00 67 1020.5
20260509175047 16 249 3.2 9.7 0.00 0.00 0.00 67 1020.6
20260509174603 16 319 0.0 8.0 0.00 0.00 0.00 67 1020.6
20260509174045 16 352 4.8 8.0 0.00 0.00 0.00 67 1020.6
20260509173545 16 360 0.0 8.0 0.00 0.00 0.00 67 1020.7
20260509173052 16 35 3.2 12.9 0.00 0.00 0.00 66 1020.7
20260509172547 16 145 0.0 12.9 0.00 0.00 0.00 69 1020.7
20260509172046 16 223 4.8 12.9 0.00 0.00 0.00 70 1020.8
20260509171550 16 0 0.0 6.4 0.00 0.00 0.00 69 1020.9
20260509171047 15 307 1.6 8.0 0.00 0.00 0.00 68 1020.9
20260509170547 15 0 1.6 8.0 0.00 0.00 0.00 66 1020.9
20260509170051 15 352 1.6 8.0 0.00 0.00 0.00 70 1020.9
20260509165544 15 307 0.0 6.4 0.00 0.00 0.00 71 1020.9
20260509165046 15 342 1.6 8.0 0.00 0.00 0.00 71 1020.9
20260509164551 15 10 0.0 8.0 0.00 0.00 0.00 72 1021.0
20260509164045 14 310 3.2 6.4 0.00 0.00 0.00 73 1021.1
20260509163546 15 360 1.6 6.4 0.00 0.00 0.00 73 1021.2
20260509163051 14 298 0.0 6.4 0.00 0.00 0.00 73 1021.3
20260509162547 14 0 3.2 6.4 0.00 0.00 0.00 73 1021.4
20260509162045 14 331 0.0 3.2 0.00 0.00 0.00 77 1021.5
20260509161550 14 332 0.0 6.4 0.00 0.00 0.00 76 1021.4
20260509161045 13 0 0.0 6.4 0.00 0.00 0.00 76 1021.5
20260509160546 13 329 0.0 4.8 0.00 0.00 0.00 77 1021.6
20260509160055 13 0 0.0 4.8 0.00 0.00 0.00 78 1021.5
20260509155549 13 0 0.0 4.8 0.00 0.00 0.00 79 1021.6
20260509155045 13 0 0.0 6.4 0.00 0.00 0.00 78 1021.7
20260509154553 12 0 0.0 6.4 0.00 0.00 0.00 80 1021.7
20260509154046 12 350 1.6 6.4 0.00 0.00 0.00 81 1021.6
20260509153548 12 0 0.0 4.8 0.00 0.00 0.00 81 1021.6
20260509153110 12 0 0.0 6.4 0.00 0.00 0.00 82 1021.7
20260509152547 12 142 1.6 6.4 0.00 0.00 0.00 82 1021.8
20260509152047 12 0 0.0 3.2 0.00 0.00 0.00 83 1021.8
20260509151553 12 0 0.0 3.2 0.00 0.00 0.00 85 1021.8
20260509151047 11 0 0.0 3.2 0.00 0.00 0.00 85 1021.9
20260509150550 11 0 0.0 3.2 0.00 0.00 0.00 86 1021.9
20260509150054 11 0 0.0 3.2 0.00 0.00 0.00 87 1022.0
20260509145548 11 137 0.0 3.2 0.00 0.00 0.00 88 1022.1
20260509145047 11 137 0.0 3.2 0.00 0.00 0.00 89 1022.0
20260509144552 11 0 0.0 1.6 0.00 0.00 0.00 90 1022.1
20260509144048 10 0 0.0 1.6 0.00 0.00 0.00 91 1022.1
20260509143546 10 0 0.0 0.0 0.00 0.00 0.00 91 1022.1
20260509143052 10 0 0.0 0.0 0.00 0.00 0.00 91 1022.1
20260509142546 10 0 0.0 0.0 0.00 0.00 0.00 91 1022.1
20260509142047 10 0 0.0 0.0 0.00 0.00 0.00 92 1022.2
20260509141554 10 0 0.0 0.0 0.00 0.00 0.00 92 1022.2
20260509141047 10 0 0.0 0.0 0.00 0.00 0.00 92 1022.2
20260509140546 10 0 0.0 0.0 0.00 0.00 0.00 92 1022.3
20260509140052 10 0 0.0 0.0 0.00 0.00 0.00 91 1022.3
20260509135548 10 0 0.0 0.0 0.00 0.00 0.00 91 1022.3
20260509135047 10 0 0.0 0.0 0.00 0.00 0.00 91 1022.4
20260509134551 10 0 0.0 0.0 0.00 0.00 0.00 91 1022.4
20260509134046 10 0 0.0 0.0 0.00 0.00 0.00 91 1022.4
20260509133549 10 0 0.0 0.0 0.00 0.00 0.00 91 1022.3
20260509133048 10 0 0.0 0.0 0.00 0.00 0.00 91 1022.3
20260509132546 10 0 0.0 0.0 0.00 0.00 0.00 91 1022.3
20260509132046 10 0 0.0 0.0 0.00 0.00 0.00 91 1022.4
20260509131551 10 0 0.0 0.0 0.00 0.00 0.00 91 1022.3
20260509131046 10 0 0.0 0.0 0.00 0.00 0.00 91 1022.3
20260509130548 10 0 0.0 0.0 0.00 0.00 0.00 90 1022.3
20260509130105 10 0 0.0 0.0 0.00 0.00 0.00 89 1022.2
20260509125547 10 0 0.0 0.0 0.00 0.00 0.00 89 1022.2
20260509125046 10 0 0.0 0.0 0.00 0.00 0.00 89 1022.3
20260509124556 10 0 0.0 0.0 0.00 0.00 0.00 89 1022.3
20260509124048 10 0 0.0 0.0 0.00 0.00 0.00 88 1022.4
20260509123546 10 0 0.0 0.0 0.00 0.00 0.00 88 1022.4
20260509123053 10 0 0.0 0.0 0.00 0.00 0.00 88 1022.4
20260509122546 10 0 0.0 0.0 0.00 0.00 0.00 88 1022.5
20260509122046 10 0 0.0 0.0 0.00 0.00 0.00 88 1022.4
20260509121611 10 0 0.0 0.0 0.00 0.00 0.00 88 1022.5
20260509121049 10 0 0.0 0.0 0.00 0.00 0.00 88 1022.4
20260509120551 10 0 0.0 0.0 0.00 0.00 0.00 88 1022.4
20260509120048 10 0 0.0 0.0 0.00 0.00 0.00 88 1022.5
20260509115545 10 0 0.0 0.0 0.00 0.00 0.00 87 1022.6
20260509115045 10 0 0.0 0.0 0.00 0.00 0.00 87 1022.5
20260509114558 10 0 0.0 0.0 0.00 0.00 0.00 87 1022.6
20260509114046 10 0 0.0 0.0 0.00 0.00 0.00 87 1022.5
20260509113546 10 0 0.0 0.0 0.00 0.00 0.00 87 1022.6
20260509113056 10 0 0.0 0.0 0.00 0.00 0.00 87 1022.6
20260509112545 11 0 0.0 0.0 0.00 0.00 0.00 87 1022.7
20260509112045 11 0 0.0 0.0 0.00 0.00 0.00 86 1022.7
20260509111549 11 0 0.0 0.0 0.00 0.00 0.00 86 1022.7
20260509111045 11 0 0.0 0.0 0.00 0.00 0.00 86 1022.8
20260509110545 11 0 0.0 0.0 0.00 0.00 0.00 86 1022.8
20260509110053 11 0 0.0 0.0 0.00 0.00 0.00 86 1022.8
20260509105549 11 0 0.0 3.2 0.00 0.00 0.00 86 1022.8
20260509105045 11 0 0.0 3.2 0.00 0.00 0.00 86 1022.8
20260509104551 11 0 0.0 3.2 0.00 0.00 0.00 86 1022.8
20260509104046 11 0 0.0 0.0 0.00 0.00 0.00 85 1022.8
20260509103546 11 0 0.0 0.0 0.00 0.00 0.00 85 1022.8
20260509103058 11 0 0.0 0.0 0.00 0.00 0.00 85 1022.7
20260509102545 11 0 0.0 12.9 0.00 0.00 0.00 85 1022.8
20260509102046 11 0 0.0 12.9 0.00 0.00 0.00 85 1022.8
20260509101600 11 137 1.6 12.9 0.00 0.00 0.00 84 1022.8
20260509101045 11 0 1.6 12.9 0.00 0.00 0.00 84 1022.7
20260509100545 11 161 6.4 12.9 0.00 0.00 0.00 84 1022.8
20260509100050 11 163 0.0 8.0 0.00 0.00 0.00 84 1022.7
20260509095545 11 0 0.0 4.8 0.00 0.00 0.00 84 1022.8
20260509095045 11 0 0.0 8.0 0.00 0.00 0.00 84 1022.7
20260509094606 11 0 0.0 8.0 0.00 0.00 0.00 84 1022.7
20260509094052 11 0 0.0 12.9 0.00 0.00 0.00 84 1022.7
20260509093547 11 181 0.0 12.9 0.00 0.00 0.00 84 1022.7
20260509093056 11 167 4.8 12.9 0.00 0.00 0.00 84 1022.6
20260509092546 11 0 4.8 11.3 0.00 0.00 0.00 84 1022.7
20260509092047 11 165 4.8 14.5 0.00 0.00 0.00 84 1022.6
20260509091558 11 161 4.8 14.5 0.00 0.00 0.00 85 1022.6
20260509091047 11 159 3.2 11.3 0.00 0.00 0.00 85 1022.7
20260509090545 11 161 1.6 11.3 0.00 0.00 0.00 85 1022.7
20260509085544 11 163 1.6 9.7 0.00 0.00 0.00 86 1022.6
20260509085046 11 155 1.6 9.7 0.00 0.00 0.00 86 1022.6
20260509084558 11 0 1.6 11.3 0.00 0.00 0.00 87 1022.7
20260509084046 11 0 0.0 11.3 0.00 0.00 0.00 87 1022.7
20260509083545 11 165 0.0 6.4 0.00 0.00 0.00 88 1022.7
20260509083059 11 0 0.0 1.6 0.00 0.00 0.00 88 1022.7
20260509082545 11 0 0.0 1.6 0.00 0.00 0.00 88 1022.7
20260509082045 11 0 0.0 0.0 0.00 0.00 0.00 88 1022.6
20260509081552 11 0 0.0 0.0 0.00 0.00 0.00 88 1022.7
20260509081047 11 0 0.0 0.0 0.00 0.00 0.00 88 1022.6
20260509080547 11 0 0.0 0.0 0.00 0.00 0.00 87 1022.6
20260509080054 11 0 0.0 0.0 0.00 0.00 0.00 87 1022.6
20260509075547 11 0 0.0 0.0 0.00 0.00 0.00 87 1022.6
20260509075047 11 0 0.0 0.0 0.00 0.00 0.00 87 1022.6
20260509074556 11 0 0.0 0.0 0.00 0.00 0.00 87 1022.6
20260509074046 11 0 0.0 0.0 0.00 0.00 0.00 86 1022.5
20260509073546 11 0 0.0 0.0 0.00 0.00 0.00 85 1022.5
20260509073055 11 0 0.0 0.0 0.00 0.00 0.00 85 1022.5
20260509072546 11 0 0.0 0.0 0.00 0.00 0.00 85 1022.4
20260509072045 11 0 0.0 0.0 0.00 0.00 0.00 85 1022.4
20260509071550 11 0 0.0 0.0 0.00 0.00 0.00 84 1022.3
20260509071045 11 0 0.0 0.0 0.00 0.00 0.00 84 1022.3
20260509070545 11 0 0.0 0.0 0.00 0.00 0.00 84 1022.3
20260509070053 11 0 0.0 0.0 0.00 0.00 0.00 84 1022.3
20260509065549 11 0 0.0 0.0 0.00 0.00 0.00 84 1022.4
20260509065047 11 0 0.0 1.6 0.00 0.00 0.00 84 1022.3
20260509064550 11 0 0.0 1.6 0.00 0.00 0.00 83 1022.3
20260509064047 11 0 0.0 1.6 0.00 0.00 0.00 83 1022.3
20260509063546 11 0 0.0 1.6 0.00 0.00 0.00 83 1022.3
20260509063054 12 0 0.0 1.6 0.00 0.00 0.00 83 1022.3
20260509062547 12 0 0.0 1.6 0.00 0.00 0.00 83 1022.3
20260509062047 12 0 0.0 3.2 0.00 0.00 0.00 83 1022.2
20260509061550 11 0 0.0 3.2 0.00 0.00 0.00 83 1022.3
20260509061046 11 0 0.0 0.0 0.00 0.00 0.00 84 1022.2
20260509060547 11 0 0.0 0.0 0.00 0.00 0.00 83 1022.2
20260509060107 11 0 0.0 0.0 0.00 0.00 0.00 83 1022.2
20260509055544 12 0 0.0 0.0 0.00 0.00 0.00 83 1022.2
20260509055045 12 0 0.0 0.0 0.00 0.00 0.00 83 1022.1
20260509054551 12 0 0.0 0.0 0.00 0.00 0.00 82 1022.1
20260509054046 12 0 0.0 0.0 0.00 0.00 0.00 82 1022.1
20260509053546 12 0 0.0 0.0 0.00 0.00 0.00 81 1022.1
20260509053111 12 0 0.0 1.6 0.00 0.00 0.00 81 1022.0
20260509052549 12 0 0.0 1.6 0.00 0.00 0.00 81 1022.1
20260509052046 12 0 0.0 1.6 0.00 0.00 0.00 80 1022.0
20260509051554 12 0 0.0 1.6 0.00 0.00 0.00 80 1022.1
20260509051050 12 0 0.0 1.6 0.00 0.00 0.00 80 1022.1
20260509050551 12 0 0.0 1.6 0.00 0.00 0.00 80 1022.1
20260509050052 12 0 0.0 0.0 0.00 0.00 0.00 81 1022.1
20260509045547 12 0 0.0 0.0 0.00 0.00 0.00 80 1022.1
20260509045046 12 0 0.0 0.0 0.00 0.00 0.00 80 1022.0
20260509044621 12 0 0.0 0.0 0.00 0.00 0.00 81 1022.0
20260509044047 12 0 0.0 0.0 0.00 0.00 0.00 81 1022.0
20260509043545 12 0 0.0 0.0 0.00 0.00 0.00 80 1021.9
20260509043125 12 0 0.0 0.0 0.00 0.00 0.00 80 1021.9
20260509042547 12 0 0.0 0.0 0.00 0.00 0.00 80 1021.8
20260509042048 12 0 0.0 3.2 0.00 0.00 0.00 80 1021.7
20260509041553 12 0 0.0 3.2 0.00 0.00 0.00 80 1021.6
20260509041046 12 0 0.0 3.2 0.00 0.00 0.00 81 1021.6
20260509040545 12 0 0.0 0.0 0.00 0.00 0.00 82 1021.6
20260509040057 12 0 0.0 0.0 0.00 0.00 0.00 80 1021.5
20260509035546 12 0 0.0 0.0 0.00 0.00 0.00 79 1021.6
20260509035047 12 0 0.0 0.0 0.00 0.00 0.00 79 1021.5
20260509034552 12 0 0.0 0.0 0.00 0.00 0.00 78 1021.5
20260509034047 13 0 0.0 0.0 0.00 0.00 0.00 77 1021.5
20260509033549 13 0 0.0 0.0 0.00 0.00 0.00 76 1021.5
20260509033051 13 0 0.0 0.0 0.00 0.00 0.00 75 1021.5
20260509032546 13 0 0.0 0.0 0.00 0.00 0.00 75 1021.5
20260509032046 13 0 0.0 0.0 0.00 0.00 0.00 75 1021.5
20260509031600 13 0 0.0 0.0 0.00 0.00 0.00 76 1021.5
20260509031047 13 0 0.0 0.0 0.00 0.00 0.00 74 1021.5
20260509030546 13 0 0.0 0.0 0.00 0.00 0.00 73 1021.5
20260509030110 13 0 0.0 0.0 0.00 0.00 0.00 72 1021.4
20260509025545 14 0 0.0 0.0 0.00 0.00 0.00 71 1021.4
20260509025049 14 0 0.0 0.0 0.00 0.00 0.00 70 1021.4
20260509024553 14 0 0.0 3.2 0.00 0.00 0.00 69 1021.3
20260509024046 14 0 0.0 3.2 0.00 0.00 0.00 70 1021.3
20260509023547 14 0 0.0 0.0 0.00 0.00 0.00 71 1021.3
20260509023055 14 0 0.0 0.0 0.00 0.00 0.00 69 1021.4
20260509022547 15 0 0.0 0.0 0.00 0.00 0.00 68 1021.3
20260509022049 15 0 0.0 0.0 0.00 0.00 0.00 65 1021.4
20260509021553 15 0 0.0 0.0 0.00 0.00 0.00 67 1021.4
20260509021049 15 0 0.0 0.0 0.00 0.00 0.00 67 1021.3
20260509020547 15 0 0.0 0.0 0.00 0.00 0.00 67 1021.2
20260509020104 15 0 0.0 1.6 0.00 0.00 0.00 64 1021.3
20260509015547 15 0 0.0 1.6 0.00 0.00 0.00 64 1021.3
20260509015046 15 0 0.0 1.6 0.00 0.00 0.00 64 1021.3
20260509014549 15 0 0.0 1.6 0.00 0.00 0.00 62 1021.2
20260509014048 15 0 0.0 4.8 0.00 0.00 0.00 64 1021.3
20260509013547 15 0 0.0 4.8 0.00 0.00 0.00 61 1021.3
20260509013057 15 0 0.0 4.8 0.00 0.00 0.00 62 1021.2
20260509012545 15 0 0.0 4.8 0.00 0.00 0.00 62 1021.4
20260509012046 15 189 0.0 4.8 0.00 0.00 0.00 61 1021.3
20260509011555 15 0 1.6 4.8 0.00 0.00 0.00 62 1021.3
20260509011045 15 0 0.0 4.8 0.00 0.00 0.00 62 1021.2
20260509010545 15 0 0.0 11.3 0.00 0.00 0.00 62 1021.2
20260509010053 15 198 3.2 11.3 0.00 0.00 0.00 62 1021.3
20260509005545 15 229 0.0 8.0 0.00 0.00 0.00 61 1021.3
20260509005047 15 0 0.0 11.3 0.00 0.00 0.00 61 1021.3
20260509004559 15 0 4.8 11.3 0.00 0.00 0.00 60 1021.3
20260509004045 15 0 0.0 6.4 0.00 0.00 0.00 61 1021.2
20260509003547 15 193 0.0 8.0 0.00 0.00 0.00 61 1021.2
20260509003055 15 211 3.2 9.7 0.00 0.00 0.00 61 1021.2
20260509002546 15 0 3.2 11.3 0.00 0.00 0.00 61 1021.2
20260509002046 15 219 4.8 14.5 0.00 0.00 0.00 62 1021.2
20260509001553 15 221 3.2 14.5 0.00 0.00 0.00 61 1021.2
20260509001045 15 209 1.6 12.9 0.00 0.00 0.00 62 1021.1
20260509000545 15 259 3.2 14.5 0.00 0.00 0.00 61 1021.2
20260509000055 15 213 6.4 16.1 0.00 0.00 0.00 62 1021.2
20260508235546 15 186 4.8 16.1 0.00 0.00 0.00 61 1021.1
20260508235046 15 261 6.4 16.1 0.00 0.00 0.00 61 1021.1
20260508234551 15 193 3.2 16.1 0.00 0.00 0.00 61 1021.0
20260508234047 15 184 1.6 16.1 0.00 0.00 0.00 61 1021.1
20260508233547 15 240 1.6 16.1 0.00 0.00 0.00 61 1021.0
20260508233053 15 229 3.2 17.7 0.00 0.00 0.00 60 1021.0
20260508232552 15 282 6.4 19.3 0.00 0.00 0.00 58 1021.0
20260508232046 15 200 6.4 19.3 0.00 0.00 0.00 60 1021.0
20260508231555 15 245 4.8 17.7 0.00 0.00 0.00 61 1021.0
20260508231046 15 198 3.2 17.7 0.00 0.00 0.00 61 1021.0